CPA331 LIRF-HECA

Flight info

Callsign CPA331
Flight time N/A
Altitude 19000
Route PEPIX L50 UNIXO/N0477F390 DCT TAGEL DCT DIRED DCT LEVDI/N0482F410 DCT NIMAN DCT ARLOS UN4 SALUN N705 BOPIX N710 TAKRI M720 FYM W613 ALPID W8 CVO
Aircraft A35K/H-SDE2E3GHIJ1J3J4J5LM1ORWXY/LB1D1

Departure

Time 2026-05-06 11:57
Airport Rome–Fiumicino Leonardo da Vinci International Airport (LIRF)

Arrival

Time N/A
Airport Cairo International Airport (HECA)
Time Latitude Longitude Altitude Speed Heading
2026-05-06 11:42 41.79627 12.24655 20 ft 0 kts 71°
2026-05-06 11:47 41.79626 12.24649 20 ft 3 kts 70°
2026-05-06 11:47 41.79619 12.24627 23 ft 4 kts 67°
2026-05-06 11:47 41.79609 12.24594 25 ft 4 kts 61°
2026-05-06 11:47 41.79593 12.24567 26 ft 4 kts 27°
2026-05-06 11:48 41.79569 12.24560 26 ft 4 kts 347°
2026-05-06 11:48 41.79558 12.24564 26 ft 1 kts 340°
2026-05-06 11:51 41.79563 12.24562 26 ft 3 kts 339°
2026-05-06 11:51 41.79680 12.24504 20 ft 39 kts 340°
2026-05-06 11:52 41.79933 12.24379 16 ft 26 kts 341°
2026-05-06 11:52 41.79965 12.24395 16 ft 5 kts 56°
2026-05-06 11:52 41.80021 12.24569 17 ft 26 kts 69°
2026-05-06 11:52 41.80122 12.24757 18 ft 26 kts 25°
2026-05-06 11:53 41.80203 12.24938 25 ft 23 kts 88°
2026-05-06 11:53 41.80226 12.25150 25 ft 24 kts 71°
2026-05-06 11:53 41.80285 12.25360 25 ft 25 kts 69°
2026-05-06 11:53 41.80349 12.25591 22 ft 27 kts 69°
2026-05-06 11:54 41.80418 12.25841 21 ft 30 kts 70°
2026-05-06 11:54 41.80492 12.26107 21 ft 27 kts 70°
2026-05-06 11:54 41.80557 12.26349 23 ft 28 kts 70°
2026-05-06 11:54 41.80626 12.26604 20 ft 31 kts 70°
2026-05-06 11:55 41.80703 12.26885 15 ft 34 kts 69°
2026-05-06 11:55 41.80773 12.27035 15 ft 9 kts 19°
2026-05-06 11:55 41.80844 12.27022 14 ft 12 kts 338°
2026-05-06 11:55 41.80863 12.27012 14 ft 1 kts 339°
2026-05-06 11:56 41.80889 12.26999 15 ft 17 kts 339°
2026-05-06 11:56 41.80951 12.26898 16 ft 6 kts 252°
2026-05-06 11:56 41.80931 12.26831 15 ft 9 kts 251°
2026-05-06 11:56 41.80922 12.26796 15 ft 1 kts 250°
2026-05-06 11:57 41.80897 12.26707 15 ft 38 kts 249°
2026-05-06 11:57 41.80706 12.26023 24 ft 117 kts 249°
2026-05-06 11:57 41.80358 12.24702 34 ft 181 kts 245°
2026-05-06 11:57 41.79931 12.23042 742 ft 190 kts 242°
2026-05-06 11:58 41.79459 12.21404 1851 ft 193 kts 244°
2026-05-06 11:58 41.78930 12.19624 2458 ft 217 kts 244°
2026-05-06 11:58 41.78340 12.17709 3206 ft 229 kts 244°
2026-05-06 11:58 41.77604 12.15752 4072 ft 239 kts 233°
2026-05-06 11:59 41.76428 12.14186 5068 ft 243 kts 213°
2026-05-06 11:59 41.74827 12.13343 5983 ft 255 kts 193°
2026-05-06 11:59 41.73076 12.13112 6966 ft 258 kts 184°
2026-05-06 11:59 41.71234 12.13219 7936 ft 266 kts 178°
2026-05-06 12:00 41.69398 12.13481 8868 ft 272 kts 176°
2026-05-06 12:00 41.67478 12.13792 9929 ft 277 kts 178°
2026-05-06 12:00 41.65515 12.14086 10620 ft 294 kts 178°
2026-05-06 12:00 41.63393 12.14354 11040 ft 319 kts 179°
2026-05-06 12:01 41.61134 12.14598 11425 ft 341 kts 179°
2026-05-06 12:01 41.58722 12.14835 12063 ft 353 kts 179°
2026-05-06 12:01 41.56242 12.15071 12900 ft 360 kts 179°
2026-05-06 12:01 41.53724 12.15307 13720 ft 367 kts 179°
2026-05-06 12:02 41.51155 12.15548 14467 ft 372 kts 179°
2026-05-06 12:02 41.48565 12.15793 15333 ft 375 kts 179°
2026-05-06 12:02 41.45951 12.16042 16240 ft 377 kts 179°
2026-05-06 12:02 41.43331 12.16292 17099 ft 380 kts 179°
2026-05-06 12:03 41.40685 12.16541 17966 ft 383 kts 179°
2026-05-06 12:03 41.38008 12.16792 18607 ft 388 kts 179°
2026-05-06 12:03 41.35307 12.17045 18925 ft 389 kts 179°
2026-05-06 12:03 41.32562 12.17301 18985 ft 406 kts 179°
2026-05-06 12:04 41.29699 12.17565 18994 ft 416 kts 179°
2026-05-06 12:04 41.26798 12.17837 18998 ft 418 kts 179°
2026-05-06 12:04 41.23894 12.18111 19000 ft 418 kts 179°
2026-05-06 12:04 41.20992 12.18389 19001 ft 418 kts 178°
2026-05-06 12:05 41.18112 12.19007 19003 ft 422 kts 168°
2026-05-06 12:05 41.15365 12.20459 19004 ft 428 kts 154°
2026-05-06 12:05 41.12881 12.22661 19000 ft 432 kts 145°
2026-05-06 12:05 41.10601 12.25273 18998 ft 435 kts 140°
2026-05-06 12:06 41.08440 12.28079 19003 ft 436 kts 138°
2026-05-06 12:06 41.06325 12.30957 19005 ft 436 kts 137°
2026-05-06 12:06 41.04212 12.33837 19013 ft 436 kts 138°
2026-05-06 12:06 41.02083 12.36695 19011 ft 436 kts 138°
2026-05-06 12:07 40.99934 12.39527 19012 ft 435 kts 139°
2026-05-06 12:07 40.97804 12.42294 19005 ft 435 kts 139°
2026-05-06 12:07 40.95634 12.45084 19010 ft 436 kts 140°
2026-05-06 12:07 40.93451 12.47876 19011 ft 436 kts 140°
2026-05-06 12:08 40.91269 12.50660 19015 ft 436 kts 140°
2026-05-06 12:08 40.89081 12.53450 19014 ft 437 kts 140°
2026-05-06 12:08 40.86895 12.56235 19010 ft 437 kts 140°
2026-05-06 12:08 40.84711 12.59019 19014 ft 437 kts 140°
2026-05-06 12:09 40.82523 12.61805 19013 ft 436 kts 140°
2026-05-06 12:09 40.80341 12.64582 19016 ft 436 kts 140°
2026-05-06 12:09 40.78150 12.67368 19362 ft 437 kts 140°
2026-05-06 12:09 40.75980 12.70143 20322 ft 431 kts 140°
2026-05-06 12:10 40.73864 12.72930 21340 ft 429 kts 139°
2026-05-06 12:10 40.71761 12.75742 22103 ft 433 kts 139°
2026-05-06 12:10 40.69633 12.78595 22791 ft 440 kts 139°
2026-05-06 12:10 40.67473 12.81485 23440 ft 446 kts 140°
2026-05-06 12:11 40.65281 12.84406 24063 ft 450 kts 140°
2026-05-06 12:11 40.63066 12.87350 24679 ft 454 kts 140°
2026-05-06 12:11 40.60828 12.90314 25197 ft 460 kts 140°
2026-05-06 12:11 40.58556 12.93317 25766 ft 465 kts 140°
2026-05-06 12:12 40.56265 12.96340 26364 ft 469 kts 140°
2026-05-06 12:12 40.53948 12.99396 26941 ft 474 kts 140°
2026-05-06 12:12 40.51613 13.02473 27512 ft 478 kts 141°
2026-05-06 12:12 40.49250 13.05583 28085 ft 482 kts 141°
2026-05-06 12:13 40.46868 13.08714 28641 ft 487 kts 141°
2026-05-06 12:13 40.44465 13.11870 29195 ft 491 kts 141°
2026-05-06 12:13 40.42039 13.15052 29684 ft 496 kts 141°
2026-05-06 12:13 40.39582 13.18271 30141 ft 501 kts 141°
2026-05-06 12:14 40.37108 13.21511 30557 ft 504 kts 141°
2026-05-06 12:14 40.34612 13.24776 30954 ft 509 kts 141°
2026-05-06 12:14 40.32131 13.28017 31355 ft 512 kts 141°
2026-05-06 12:14 40.29677 13.31435 31763 ft 519 kts 135°
2026-05-06 12:15 40.27371 13.35105 32145 ft 523 kts 134°
2026-05-06 12:15 40.25102 13.38831 32583 ft 525 kts 134°
2026-05-06 12:15 40.22851 13.42588 33134 ft 523 kts 134°
2026-05-06 12:15 40.20614 13.46345 33672 ft 522 kts 134°
2026-05-06 12:16 40.18387 13.50081 34150 ft 521 kts 133°
2026-05-06 12:16 40.16164 13.53805 34759 ft 516 kts 133°
2026-05-06 12:16 40.13964 13.57477 35332 ft 512 kts 133°
2026-05-06 12:16 40.11768 13.61129 35775 ft 510 kts 133°
2026-05-06 12:17 40.09572 13.64766 36134 ft 510 kts 133°
2026-05-06 12:17 40.07365 13.68413 36337 ft 513 kts 133°
2026-05-06 12:17 40.05148 13.72073 36666 ft 513 kts 133°
2026-05-06 12:17 40.02941 13.75716 37090 ft 511 kts 133°
2026-05-06 12:18 40.00738 13.79351 37515 ft 509 kts 133°
2026-05-06 12:18 39.98542 13.82970 37896 ft 508 kts 133°
2026-05-06 12:18 39.96352 13.86576 38242 ft 507 kts 133°
2026-05-06 12:18 39.94169 13.90164 38685 ft 504 kts 133°
2026-05-06 12:19 39.91995 13.93734 38937 ft 503 kts 133°
2026-05-06 12:19 39.89815 13.97308 39015 ft 504 kts 133°
2026-05-06 12:19 39.85481 14.04402 39012 ft 504 kts 133°
2026-05-06 12:20 39.81109 14.11544 39011 ft 504 kts 133°
2026-05-06 12:20 39.76732 14.18677 39006 ft 505 kts 133°
2026-05-06 12:21 39.72354 14.25796 39005 ft 503 kts 133°
2026-05-06 12:21 39.68001 14.32862 39011 ft 500 kts 133°
2026-05-06 12:22 39.63655 14.39898 39009 ft 500 kts 133°
2026-05-06 12:22 39.59304 14.46925 39010 ft 500 kts 133°
2026-05-06 12:23 39.54942 14.53930 38998 ft 500 kts 133°
2026-05-06 12:23 39.50403 14.60787 39010 ft 502 kts 135°
2026-05-06 12:24 39.45803 14.67583 39010 ft 502 kts 135°
2026-05-06 12:24 39.41209 14.74409 39009 ft 503 kts 135°
2026-05-06 12:25 39.36629 14.81243 39006 ft 503 kts 135°
2026-05-06 12:25 39.32052 14.88070 39008 ft 503 kts 135°
2026-05-06 12:26 39.27468 14.94892 38988 ft 502 kts 134°
2026-05-06 12:26 39.22886 15.01694 39007 ft 502 kts 134°
2026-05-06 12:27 39.18339 15.08430 39007 ft 502 kts 134°
2026-05-06 12:27 39.13755 15.15204 39007 ft 502 kts 134°
2026-05-06 12:28 39.09164 15.21976 39009 ft 502 kts 134°
2026-05-06 12:28 39.04569 15.28738 39007 ft 502 kts 134°
2026-05-06 12:29 39.02269 15.32118 38903 ft 500 kts 134°
2026-05-06 12:29 38.99986 15.35469 38655 ft 498 kts 134°
2026-05-06 12:29 38.97703 15.38817 38367 ft 498 kts 134°
2026-05-06 12:29 38.95427 15.42151 37882 ft 493 kts 134°
2026-05-06 12:30 38.90975 15.48668 37937 ft 484 kts 134°
2026-05-06 12:30 38.86481 15.55216 38139 ft 493 kts 134°
2026-05-06 12:31 38.84205 15.58528 38253 ft 497 kts 134°
2026-05-06 12:31 38.81914 15.61859 38485 ft 498 kts 134°
2026-05-06 12:31 38.79625 15.65189 38793 ft 497 kts 135°
2026-05-06 12:31 38.77338 15.68513 38978 ft 498 kts 135°
2026-05-06 12:32 38.72765 15.75148 39004 ft 496 kts 135°
2026-05-06 12:32 38.68209 15.81740 39018 ft 498 kts 135°
2026-05-06 12:33 38.63613 15.88376 39018 ft 499 kts 135°
2026-05-06 12:33 38.59008 15.95012 39023 ft 499 kts 135°
2026-05-06 12:34 38.54399 16.01641 39025 ft 499 kts 135°
2026-05-06 12:34 38.49781 16.08267 39033 ft 499 kts 135°
2026-05-06 12:35 38.45162 16.14881 39034 ft 499 kts 135°
2026-05-06 12:35 38.40537 16.21491 39048 ft 500 kts 135°
2026-05-06 12:36 38.35893 16.28112 39050 ft 501 kts 135°
2026-05-06 12:36 38.31243 16.34730 39056 ft 501 kts 135°
2026-05-06 12:37 38.26599 16.41325 39059 ft 501 kts 135°
2026-05-06 12:37 38.21978 16.47874 39064 ft 501 kts 135°
2026-05-06 12:38 38.17319 16.54463 39063 ft 501 kts 135°
2026-05-06 12:38 38.13440 16.59937 39064 ft 502 kts 135°
2026-05-06 12:39 38.08763 16.66526 39066 ft 502 kts 135°
2026-05-06 12:39 38.04078 16.73113 39066 ft 503 kts 135°
2026-05-06 12:40 37.99390 16.79692 39070 ft 503 kts 135°
2026-05-06 12:40 37.94692 16.86270 39070 ft 503 kts 135°
2026-05-06 12:41 37.89992 16.92837 39071 ft 503 kts 135°
2026-05-06 12:41 37.85287 16.99398 39078 ft 504 kts 135°
2026-05-06 12:42 37.80564 17.05969 39076 ft 505 kts 135°
2026-05-06 12:42 37.75833 17.12539 39078 ft 505 kts 135°
2026-05-06 12:43 37.71101 17.19098 39080 ft 505 kts 135°
2026-05-06 12:43 37.66364 17.25650 39079 ft 505 kts 135°
2026-05-06 12:44 37.61619 17.32199 39081 ft 505 kts 135°
2026-05-06 12:44 37.56875 17.38734 39082 ft 506 kts 135°
2026-05-06 12:45 37.52116 17.45275 39086 ft 505 kts 135°
2026-05-06 12:46 37.44995 17.55039 39090 ft 504 kts 135°
2026-05-06 12:46 37.40250 17.61530 39092 ft 504 kts 135°
2026-05-06 12:47 37.35498 17.68016 39089 ft 504 kts 135°
2026-05-06 12:47 37.30742 17.74494 39091 ft 504 kts 135°
2026-05-06 12:48 37.25987 17.80958 39093 ft 503 kts 135°
2026-05-06 12:48 37.21234 17.87407 39094 ft 503 kts 135°
2026-05-06 12:49 37.16474 17.93853 39094 ft 503 kts 135°
2026-05-06 12:49 37.11712 18.00288 39094 ft 503 kts 135°
2026-05-06 12:50 37.06950 18.06711 39100 ft 503 kts 135°
2026-05-06 12:50 37.02182 18.13128 39100 ft 503 kts 135°
2026-05-06 12:51 36.97410 18.19538 39102 ft 503 kts 135°
2026-05-06 12:51 36.92633 18.25943 39102 ft 503 kts 135°
2026-05-06 12:52 36.87853 18.32338 39102 ft 503 kts 135°
2026-05-06 12:52 36.83073 18.38722 39103 ft 503 kts 135°
2026-05-06 12:53 36.78287 18.45101 39104 ft 503 kts 135°
2026-05-06 12:53 36.73500 18.51468 39105 ft 503 kts 135°
2026-05-06 12:54 36.68709 18.57829 39101 ft 504 kts 135°
2026-05-06 12:54 36.63912 18.64185 39102 ft 504 kts 135°
2026-05-06 12:55 36.59103 18.70545 39102 ft 504 kts 135°
2026-05-06 12:55 36.54290 18.76897 39109 ft 504 kts 135°
2026-05-06 12:56 36.49702 18.83499 39270 ft 507 kts 126°
2026-05-06 12:56 36.47788 18.87183 39486 ft 508 kts 123°
2026-05-06 12:56 36.45943 18.90928 39691 ft 508 kts 122°
2026-05-06 12:56 36.44134 18.94699 39886 ft 509 kts 122°
2026-05-06 12:57 36.42332 18.98497 40078 ft 510 kts 122°
2026-05-06 12:57 36.40535 19.02289 40262 ft 510 kts 122°
2026-05-06 12:57 36.38731 19.06082 40359 ft 512 kts 122°
2026-05-06 12:57 36.36910 19.09895 40503 ft 514 kts 122°
2026-05-06 12:58 36.35084 19.13704 40689 ft 514 kts 122°
2026-05-06 12:58 36.33251 19.17517 40868 ft 514 kts 122°
2026-05-06 12:58 36.31417 19.21323 41036 ft 515 kts 122°
2026-05-06 12:59 36.27737 19.28944 41117 ft 515 kts 122°
2026-05-06 12:59 36.24048 19.36569 41116 ft 515 kts 122°
2026-05-06 13:00 36.20360 19.44175 41117 ft 515 kts 122°
2026-05-06 13:00 36.16686 19.51736 41119 ft 515 kts 122°
2026-05-06 13:01 36.12968 19.59372 41118 ft 515 kts 122°
2026-05-06 13:01 36.09266 19.66955 41116 ft 515 kts 122°
2026-05-06 13:02 36.05563 19.74526 41115 ft 515 kts 123°
2026-05-06 13:02 36.01850 19.82099 41120 ft 515 kts 123°
2026-05-06 13:03 35.98157 19.89614 41116 ft 515 kts 123°
2026-05-06 13:03 35.94437 19.97169 41120 ft 515 kts 123°
2026-05-06 13:04 35.90816 20.04807 41118 ft 516 kts 119°
2026-05-06 13:04 35.87586 20.12718 41122 ft 516 kts 117°
2026-05-06 13:05 35.84397 20.20647 41121 ft 516 kts 118°
2026-05-06 13:05 35.81139 20.28536 41119 ft 516 kts 118°
2026-05-06 13:06 35.77841 20.36397 41125 ft 516 kts 118°
2026-05-06 13:06 35.74532 20.44245 41122 ft 516 kts 118°
2026-05-06 13:07 35.71218 20.52092 41123 ft 516 kts 118°
2026-05-06 13:07 35.67905 20.59923 41123 ft 516 kts 118°
2026-05-06 13:08 35.64584 20.67755 41109 ft 516 kts 118°
2026-05-06 13:08 35.61255 20.75589 41119 ft 517 kts 118°
2026-05-06 13:09 35.57924 20.83410 41124 ft 517 kts 118°
2026-05-06 13:09 35.54582 20.91238 41120 ft 517 kts 118°
2026-05-06 13:10 35.51239 20.99048 41121 ft 517 kts 119°
2026-05-06 13:10 35.47889 21.06858 41120 ft 517 kts 119°
2026-05-06 13:11 35.44533 21.14662 41122 ft 517 kts 119°
2026-05-06 13:11 35.41172 21.22462 41120 ft 517 kts 119°
2026-05-06 13:12 35.37806 21.30253 41119 ft 518 kts 119°
2026-05-06 13:12 35.34431 21.38047 41120 ft 518 kts 119°
2026-05-06 13:13 35.31055 21.45828 41122 ft 518 kts 119°
2026-05-06 13:13 35.27672 21.53605 41126 ft 518 kts 119°
2026-05-06 13:14 35.24282 21.61379 41116 ft 518 kts 119°
2026-05-06 13:14 35.20889 21.69143 41119 ft 518 kts 119°
2026-05-06 13:15 35.17491 21.76902 41130 ft 518 kts 119°
2026-05-06 13:15 35.14084 21.84663 41119 ft 518 kts 119°
2026-05-06 13:16 35.10673 21.92415 41118 ft 518 kts 119°
2026-05-06 13:16 35.07258 22.00157 41117 ft 518 kts 119°
2026-05-06 13:17 35.03836 22.07899 41120 ft 518 kts 119°
2026-05-06 13:17 35.00413 22.15624 41122 ft 518 kts 119°
2026-05-06 13:18 34.96979 22.23359 41115 ft 518 kts 120°
2026-05-06 13:18 34.93540 22.31086 41121 ft 519 kts 120°
2026-05-06 13:19 34.90096 22.38808 41125 ft 519 kts 120°
2026-05-06 13:19 34.86671 22.46468 41115 ft 518 kts 120°
2026-05-06 13:20 34.83214 22.54184 41118 ft 519 kts 120°
2026-05-06 13:20 34.79755 22.61888 41131 ft 519 kts 120°
2026-05-06 13:21 34.76287 22.69592 41128 ft 519 kts 120°
2026-05-06 13:21 34.72814 22.77292 41110 ft 519 kts 120°
2026-05-06 13:22 34.69335 22.84987 41113 ft 520 kts 120°
2026-05-06 13:22 34.66418 22.91426 41127 ft 520 kts 120°
2026-05-06 13:23 34.62926 22.99120 41106 ft 520 kts 120°
2026-05-06 13:23 34.59520 23.06862 41109 ft 520 kts 118°
2026-05-06 13:24 34.56254 23.14692 41130 ft 520 kts 117°
2026-05-06 13:24 34.52977 23.22519 41130 ft 520 kts 118°
2026-05-06 13:25 34.49670 23.30327 41129 ft 520 kts 118°
2026-05-06 13:25 34.46369 23.38066 41110 ft 520 kts 118°
2026-05-06 13:26 34.43041 23.45848 41110 ft 520 kts 118°
2026-05-06 13:26 34.39706 23.53631 41129 ft 521 kts 118°
2026-05-06 13:27 34.36367 23.61407 41122 ft 521 kts 118°
2026-05-06 13:27 34.33018 23.69190 41118 ft 521 kts 118°
2026-05-06 13:28 34.29668 23.76958 41119 ft 521 kts 118°
2026-05-06 13:28 34.26311 23.84724 41118 ft 521 kts 118°
2026-05-06 13:29 34.22950 23.92482 41116 ft 521 kts 118°
2026-05-06 13:29 34.19582 24.00240 41119 ft 521 kts 118°
2026-05-06 13:30 34.16210 24.07988 41118 ft 521 kts 119°
2026-05-06 13:30 34.12833 24.15730 41121 ft 522 kts 119°
2026-05-06 13:31 34.09449 24.23470 41119 ft 522 kts 119°
2026-05-06 13:31 34.06060 24.31206 41118 ft 522 kts 119°
2026-05-06 13:32 34.02665 24.38939 41121 ft 522 kts 119°
2026-05-06 13:32 33.98647 24.46154 41122 ft 517 kts 135°
2026-05-06 13:33 33.93477 24.52155 41114 ft 516 kts 140°
2026-05-06 13:33 33.88118 24.57888 41121 ft 515 kts 141°
2026-05-06 13:34 33.82735 24.63593 41120 ft 515 kts 141°
2026-05-06 13:34 33.77373 24.69309 41119 ft 515 kts 141°
2026-05-06 13:35 33.72019 24.75033 41123 ft 515 kts 141°
2026-05-06 13:35 33.66658 24.80762 41118 ft 515 kts 141°
2026-05-06 13:36 33.61301 24.86475 41121 ft 515 kts 141°
2026-05-06 13:36 33.55936 24.92185 41121 ft 515 kts 141°
2026-05-06 13:37 33.50574 24.97881 41120 ft 515 kts 141°
2026-05-06 13:37 33.45201 25.03580 41120 ft 515 kts 141°
2026-05-06 13:38 33.39832 25.09264 41122 ft 516 kts 141°
2026-05-06 13:38 33.34456 25.14945 41121 ft 516 kts 141°
2026-05-06 13:39 33.29075 25.20622 41121 ft 516 kts 141°
2026-05-06 13:39 33.23692 25.26292 41121 ft 516 kts 141°
2026-05-06 13:40 33.18309 25.31953 41125 ft 516 kts 141°
2026-05-06 13:40 33.12926 25.37605 41124 ft 516 kts 141°
2026-05-06 13:41 33.07535 25.43254 41123 ft 516 kts 141°
2026-05-06 13:41 33.02139 25.48899 41124 ft 516 kts 141°
2026-05-06 13:42 32.96744 25.54533 41125 ft 516 kts 141°
2026-05-06 13:42 32.91346 25.60161 41124 ft 516 kts 141°
2026-05-06 13:43 32.85944 25.65783 41123 ft 516 kts 142°
2026-05-06 13:43 32.80533 25.71406 41124 ft 517 kts 142°
2026-05-06 13:44 32.75118 25.77023 41124 ft 517 kts 142°
2026-05-06 13:44 32.69701 25.82633 41114 ft 516 kts 142°
2026-05-06 13:45 32.64282 25.88237 41124 ft 517 kts 142°
2026-05-06 13:45 32.56183 25.96593 41124 ft 517 kts 142°
2026-05-06 13:46 32.50748 26.02189 41127 ft 517 kts 142°
2026-05-06 13:46 32.45319 26.07769 41127 ft 517 kts 142°
2026-05-06 13:47 32.39884 26.13346 41127 ft 517 kts 142°
2026-05-06 13:47 32.34446 26.18919 41129 ft 517 kts 142°
2026-05-06 13:48 32.29011 26.24478 41127 ft 517 kts 142°
2026-05-06 13:48 32.23572 26.30031 41127 ft 517 kts 142°
2026-05-06 13:49 32.18125 26.35584 41127 ft 517 kts 142°
2026-05-06 13:49 32.12715 26.41090 41127 ft 517 kts 142°
2026-05-06 13:50 32.07267 26.46625 41115 ft 517 kts 142°